Location: Great Falls
(47.5000°N, 111.3000°W)
Time: 01:10:35
(UTC-06:00)

Envisat - Visible Passes

Search period start: 19 October 2019 00:00
Search period end: 29 October 2019 00:00
Orbit: 764 x 766 km, 98.1° (Epoch: 19 October)

Date Brightness Start Highest point End Pass type
(mag) Time Alt. Az. Time Alt. Az. Time Alt. Az.
19 Oct 5.3 20:30:30 10° SSW 20:34:37 24° W 20:38:45 10° NW visible
20 Oct 6.4 06:57:46 10° ENE 07:00:05 13° E 07:02:24 10° ESE visible
20 Oct 4.0 19:52:40 10° S 19:57:35 50° W 20:02:33 10° NNW visible
21 Oct 3.0 19:15:41 10° SSE 19:20:46 80° ENE 19:25:53 10° NNW visible
21 Oct 6.0 20:57:38 10° WSW 21:00:25 15° W 21:03:12 10° NW visible
22 Oct 5.9 07:21:59 10° NE 07:25:54 22° E 07:29:48 10° SE visible
22 Oct 5.0 20:18:49 10° SSW 20:23:15 30° W 20:27:43 10° NNW visible
23 Oct 6.7 06:48:15 10° E 06:48:39 10° E 06:49:02 10° E visible
23 Oct 3.5 19:41:16 10° S 19:46:17 62° W 19:51:21 10° NNW visible
24 Oct 3.0 19:04:30 10° SSE 19:09:31 65° ENE 19:14:34 10° N visible
24 Oct 5.7 20:45:33 10° SW 20:49:00 18° W 20:52:30 10° NW visible
25 Oct 6.1 07:11:07 10° NE 07:14:31 18° E 07:17:55 10° SE visible
25 Oct 4.6 20:07:13 10° SSW 20:11:54 37° W 20:16:37 10° NNW visible
26 Oct 3.2 19:29:56 10° S 19:35:00 77° WSW 19:40:07 10° NNW visible
26 Oct 6.3 21:13:57 10° W 21:14:53 10° W 21:15:49 10° WNW visible
27 Oct 3.1 18:53:23 10° SE 18:58:17 53° ENE 19:03:14 10° N visible
27 Oct 5.4 20:33:40 10° SW 20:37:37 23° W 20:41:36 10° NW visible
28 Oct 6.2 07:00:26 10° NE 07:03:07 14° E 07:05:47 10° ESE visible
28 Oct 4.1 19:55:43 10° S 20:00:34 46° W 20:05:29 10° NNW visible
